Simultaneous Nadir Overpasses (SNOs) Predictions

Prediction of SNOs between AQUA and GOES-15 Satellite Orbit:

Table of predicted SNOs for the next 14.0 days since TLE Epoch: 11/17/2012
Index Date Time (AQUA) AQUA Lat,Lon GOES-15 Lat,Lon Distance(km) Time Diff (sec)
1 11/18/2012 10:19:20 -0.78,-131.15 0.02,-134.74 409.25 80
2 11/18/2012 22:40:45 -0.34,-136.34 0.01,-134.76 179.96 80
3 11/20/2012 22:28:38 0.33,-133.41 0.00,-134.85 164.73 80
4 11/21/2012 10:49:55 0.73,-138.57 -0.03,-134.88 419.15 80
5 11/23/2012 10:37:47 0.15,-135.62 -0.02,-134.97 75.02 80
6 11/25/2012 10:25:41 -0.54,-132.70 -0.02,-135.05 268.61 80
7 11/25/2012 22:47:06 -0.59,-137.89 0.04,-135.06 321.68 80
8 11/27/2012 22:35:00 0.08,-134.96 0.03,-135.14 21.01 80
9 11/29/2012 22:22:53 0.67,-132.01 0.02,-135.21 362.86 80
10 11/30/2012 10:44:11 0.36,-137.19 -0.04,-135.24 221.26 80




NCC Satellite Simultaneous Nadir Overpasses (SNOs) Prediction Service
